Theta_e
297 297 297 295 297 297 295 296 292 296 297 300 304 307 310 313 314 313 315 317 317 318 324 324 323 324 323 324 325 324 322 321 321 322 321 320 319 318 317 315 315 315 314 314
295 297 296 295 298 298 297 297 296 298 298 305 307 308 309 311 312 312 313 315 316 318 319 323 322 322 322 322 322 323 321 320 319 318 317 315 315 314 313 312 312 311 310 309
287 296 296 289 295 298 298 299 299 294 300 305 305 305 306 307 312 312 313 314 314 317 319 323 323 322 321 320 320 319 318 318 317 314 312 311 311 310 309 307 307 306 306 306
288 293 283 296 301 300 299 301 301 301 302 304 304 306 308 310 310 312 313 314 315 316 322 322 323 320 319 319 318 317 315 313 311 309 307 305 304 303 303 304 304 304 304 304
286 287 293 296 299 298 296 295 301 302 303 304 305 306 306 310 311 313 314 315 318 321 322 320 319 318 317 316 313 310 306 303 302 303 302 302 301 301 303 301 301 301 301 302
288 285 283 294 301 304 303 291 301 302 305 304 306 299 303 312 315 315 319 320 319 320 319 317 317 316 311 306 303 300 300 301 301 301 301 296 300 300 300 300 300 300 299 299
286 287 292 299 303 304 290 293 303 304 305 306 304 307 313 316 315 317 319 319 320 318 316 315 311 304 300 299 298 298 298 298 299 299 299 299 298 299 299 298 299 297 295 294
289 286 284 303 302 295 302 306 307 305 306 307 312 313 313 314 314 314 315 315 317 315 312 309 304 300 299 297 297 297 297 297 297 298 298 297 297 297 297 297 294 289 289 289
294 293 303 306 304 307 310 311 310 311 311 311 311 311 312 312 313 313 312 312 309 302 300 300 300 300 298 297 297 297 296 296 295 296 297 297 295 294 293 294 293 292 290 290
296 300 302 304 308 308 308 310 311 312 311 313 310 311 310 312 312 310 307 306 303 299 298 298 299 298 298 297 297 296 295 295 295 295 294 295 296 295 293 292 291 289 288 288
298 301 304 305 307 307 308 310 310 311 311 311 311 311 310 310 310 308 306 304 302 299 299 296 296 297 297 297 297 295 295 296 296 295 294 293 294 294 293 294 292 289 288 287
293 304 303 305 308 309 308 308 309 309 308 309 310 310 309 309 309 306 303 302 301 300 297 295 296 296 296 297 296 295 294 294 294 293 293 292 291 290 291 289 289 288 288 287
302 307 307 309 307 307 307 308 308 307 307 307 309 309 308 307 306 300 301 301 300 297 296 295 295 294 296 296 294 292 293 291 290 289 289 289 289 288 287 289 287 287 287 287
302 305 302 304 302 304 305 307 305 307 307 307 308 308 308 306 302 301 301 299 297 296 295 295 295 294 296 296 294 292 293 288 290 290 290 290 290 288 287 285 285 285 287 287
298 299 301 302 302 303 304 303 302 303 303 304 306 306 306 303 302 301 299 298 296 295 295 295 294 293 295 295 293 291 290 290 290 289 288 286 286 286 286 285 285 285 285 284
294 297 298 298 298 299 299 301 301 301 303 303 303 303 303 299 297 296 296 296 294 293 295 292 291 293 294 294 292 290 290 286 286 287 286 286 285 285 284 284 284 284 284 284
291 290 293 294 295 296 297 299 299 300 300 300 301 302 298 296 295 295 295 296 295 292 291 290 289 289 288 290 290 290 290 288 284 285 285 285 284 284 284 284 284 284 285 286
292 293 293 294 294 295 296 298 298 298 298 299 295 292 292 292 293 293 291 290 289 288 289 289 288 287 288 290 290 289 287 286 286 285 285 284 284 284 284 285 285 285 286 286
292 292 292 292 294 294 295 295 295 294 292 290 290 289 289 289 289 288 287 287 286 286 287 288 285 287 288 287 287 287 286 286 285 284 285 284 284 284 284 283 284 285 285 285
291 291 292 291 290 290 290 289 293 289 288 288 287 287 287 287 287 286 286 286 287 289 288 287 286 287 288 285 284 287 286 286 285 283 283 283 283 284 284 284 284 285 285 285
290 288 286 285 285 285 285 285 287 286 287 287 287 287 287 286 286 286 286 287 287 288 289 285 288 288 289 286 285 287 286 285 284 283 283 284 284 284 284 285 285 285 285 285
290 288 285 285 285 287 286 288 289 286 287 286 286 286 286 285 285 286 287 288 288 286 287 287 287 286 284 282 286 286 285 284 284 284 284 284 283 283 284 284 284 285 285 285
291 290 289 286 287 290 290 289 286 287 285 285 286 286 286 288 287 286 286 288 289 286 288 289 283 282 282 285 286 285 284 284 284 284 284 284 284 284 284 284 284 285 285 284
291 291 290 291 292 292 291 291 291 289 285 287 286 286 288 288 288 291 291 288 286 285 287 284 283 282 281 285 284 284 283 284 284 284 285 285 285 285 284 284 284 284 284 284
289 290 290 291 292 291 292 292 291 290 289 289 289 288 289 293 290 291 290 288 285 285 286 282 282 281 284 284 283 283 283 283 284 284 285 285 284 284 284 284 284 284 284 284
287 286 286 287 285 287 288 291 290 289 289 287 288 290 292 291 292 291 289 287 286 286 286 285 284 283 284 283 283 283 283 284 284 284 285 285 284 284 284 284 284 284 284 284
285 284 284 285 285 284 284 284 285 287 287 290 288 288 288 288 291 290 288 287 287 286 286 285 284 284 284 284 284 284 284 285 285 285 284 283 283 284 284 284 284 284 284 283
Wind_Speed
31 35 24 34 26 29 26 26 21 22 29 26 17 11 10 11 9 10 12 13 9 6 10 12 11 16 15 13 12 11 11 10 9 8 9 8 7 7 6 7 6 6 6 6
31 31 36 31 32 29 29 26 28 26 30 24 18 15 13 15 16 17 16 15 11 9 7 13 13 12 12 12 10 9 11 10 10 9 9 7 7 8 7 6 6 6 6 5
25 29 29 39 25 28 27 28 24 28 31 21 24 25 22 16 15 20 13 9 8 10 10 9 13 11 13 13 7 5 7 9 9 10 10 9 7 6 6 6 6 5 4 5
17 25 38 16 32 29 23 26 29 27 33 25 25 23 10 11 10 8 9 11 11 9 11 13 12 12 11 11 10 7 10 10 8 7 7 7 7 6 4 3 3 3 3 3
12 23 19 29 23 25 28 34 30 29 32 28 29 16 14 19 11 8 7 7 8 8 17 16 16 14 12 11 10 10 10 8 8 7 7 6 5 4 5 5 4 2 1 2
14 23 31 24 24 28 23 27 33 27 25 27 20 14 18 6 4 2 2 0 8 16 16 16 16 13 14 11 11 10 11 9 7 6 7 6 6 5 3 1 1 2 2 1
18 14 15 19 27 26 34 20 31 30 21 11 8 7 1 3 4 6 9 12 14 15 15 15 15 15 12 10 10 9 8 7 7 6 7 6 5 2 2 1 3 3 2 2
18 17 13 24 26 34 18 18 11 22 20 14 2 4 6 4 8 12 12 13 14 14 13 14 13 14 13 12 10 10 8 7 5 5 3 3 4 6 6 5 4 3 2 4
18 20 13 10 21 17 9 6 12 10 11 9 7 5 7 6 9 12 13 13 12 13 14 12 12 13 13 11 10 8 8 7 6 5 6 6 5 3 1 3 3 4 3 4
18 18 25 23 13 15 11 7 7 5 5 7 4 7 6 6 9 11 11 12 13 14 13 11 10 10 12 13 11 9 7 6 6 5 3 5 3 3 3 2 2 2 2 2
22 15 16 19 21 24 14 5 9 9 11 7 8 9 8 7 10 10 11 12 13 14 13 11 10 11 12 11 11 8 6 6 5 4 5 3 4 3 4 4 3 2 2 1
7 16 10 6 5 6 6 10 8 6 4 2 5 10 9 8 10 11 13 12 13 13 12 12 10 12 11 8 6 6 5 3 3 3 2 0 1 2 6 8 8 8 7 6
4 1 3 5 5 8 8 8 8 5 5 6 6 9 10 9 10 11 13 13 13 14 13 12 11 10 8 8 6 6 6 5 3 3 2 3 2 1 3 4 8 9 10 12
7 6 6 6 7 4 4 4 3 6 3 3 6 6 9 12 13 13 14 14 14 13 11 11 10 9 10 8 7 5 5 6 4 2 3 2 2 1 1 2 4 4 6 7
7 9 9 6 4 7 4 4 3 5 8 6 5 4 10 15 14 15 15 15 14 13 9 11 11 9 7 5 6 5 3 1 2 1 1 2 1 2 3 3 5 7 7 6
8 6 4 4 5 1 6 4 7 6 7 6 7 8 12 13 14 15 14 13 13 10 11 8 8 8 6 6 6 5 5 6 3 1 1 1 1 2 3 6 7 8 9 9
12 9 5 5 4 2 3 2 5 5 6 6 5 12 17 17 15 14 14 15 14 10 11 11 8 7 6 5 5 3 2 4 4 1 2 1 2 4 5 7 8 9 10 9
10 9 8 9 5 5 9 8 9 9 6 8 8 9 11 12 13 12 11 11 12 9 8 8 9 7 6 6 4 2 2 1 1 1 0 2 4 6 6 8 9 10 9 9
10 11 10 11 10 9 9 10 10 8 8 8 10 9 9 10 10 10 11 11 11 11 7 8 9 7 6 5 5 2 1 0 2 2 2 5 4 6 7 9 10 10 11 10
14 12 12 11 10 9 7 6 7 8 5 8 9 8 8 6 7 10 11 11 10 5 10 10 8 5 5 8 5 2 2 1 1 2 4 5 7 6 7 10 10 9 10 9
11 10 9 8 6 6 4 3 4 6 5 4 5 8 9 11 11 10 5 7 4 11 10 11 7 4 4 6 5 2 3 1 2 4 6 5 6 6 8 8 8 9 9 9
8 7 8 6 5 5 4 4 5 4 3 4 4 6 8 8 9 5 6 5 6 8 8 6 4 4 6 5 2 3 2 3 3 3 4 4 5 7 7 8 8 8 9 9
5 6 6 5 5 5 4 6 3 2 1 3 4 6 7 5 6 9 8 5 8 7 6 4 9 8 7 3 1 1 2 2 2 3 4 5 6 6 7 8 8 8 9 9
6 5 4 2 1 1 3 5 3 5 3 3 4 6 6 5 5 4 4 9 11 9 2 8 8 8 7 4 3 3 3 2 3 4 4 5 5 6 6 7 8 8 8 10
9 11 13 11 7 5 4 4 3 3 1 3 4 5 7 4 4 3 6 7 12 9 6 7 7 7 5 5 4 3 3 3 4 4 3 4 4 5 6 6 7 8 8 9
9 8 8 12 10 9 9 7 3 3 1 2 1 2 2 2 1 5 7 8 8 7 6 5 5 5 4 5 5 4 4 4 3 3 3 4 4 5 5 7 8 8 8 8
7 9 8 7 7 8 8 7 8 6 3 0 3 4 2 2 2 5 7 6 6 5 7 6 7 7 6 5 5 5 4 4 4 3 2 3 3 4 5 6 7 7 7 8
Wind_Direction
224 238 232 240 214 211 227 218 228 224 239 238 237 234 197 196 201 228 179 185 197 206 165 164 160 157 167 180 188 178 163 163 152 132 128 126 123 105 88 91 101 110 119 132
246 224 232 244 229 217 217 232 232 240 241 242 254 264 256 212 203 216 215 200 202 177 205 171 162 162 167 166 177 169 167 147 137 131 125 127 132 137 131 136 138 130 142 137
232 230 228 233 243 219 215 224 230 225 238 242 239 238 243 260 228 219 219 198 196 194 189 161 163 153 160 151 142 151 137 145 146 139 145 152 156 145 128 110 108 115 127 144
234 236 230 219 232 243 252 220 227 242 241 240 242 247 260 245 249 214 207 198 211 202 141 131 129 132 138 145 156 170 148 149 150 137 126 95 82 91 94 122 139 131 110 97
245 231 234 231 228 226 235 244 244 238 235 238 244 252 248 239 236 214 187 209 213 158 147 142 150 150 155 156 158 146 144 115 93 94 95 99 108 87 52 43 35 54 134 144
253 226 223 223 228 227 240 242 244 247 235 227 236 233 242 198 187 210 311 72 127 134 139 146 152 148 151 148 139 124 120 113 114 128 112 96 81 94 121 78 293 297 314 6
239 237 231 218 221 232 218 230 235 228 236 252 231 234 166 28 333 93 120 119 117 134 144 146 142 133 130 118 121 116 108 109 117 104 103 108 102 69 31 312 289 292 336 338
227 226 222 220 224 223 221 219 237 222 238 247 67 39 68 66 108 114 118 122 128 136 138 138 134 131 130 121 124 122 126 127 122 117 125 129 172 209 210 205 205 197 233 265
215 212 216 215 227 245 242 200 171 183 177 161 187 186 136 123 118 131 136 133 127 121 125 122 122 130 135 136 133 139 142 142 145 159 187 192 179 182 187 228 214 229 203 218
224 198 219 227 243 254 256 180 244 256 188 143 131 124 141 147 140 145 145 145 139 132 131 128 113 121 126 135 143 150 161 171 137 126 176 204 209 199 202 207 221 227 245 260
217 220 216 219 229 252 260 157 228 226 232 196 159 164 163 173 156 156 153 154 145 141 134 132 134 137 144 146 153 151 153 163 170 160 166 195 215 213 227 225 201 213 242 231
209 214 206 221 256 214 216 211 230 250 133 198 206 156 168 176 155 154 148 156 130 128 138 153 148 137 139 142 124 135 110 116 134 149 145 169 262 276 245 231 234 215 229 226
165 20 246 195 86 360 244 184 177 198 192 183 166 165 177 159 149 138 136 132 138 137 147 146 132 136 111 89 93 84 124 118 113 127 173 216 235 240 266 268 228 235 239 244
41 131 109 126 125 103 331 36 73 168 144 181 162 177 160 145 136 144 136 130 135 142 149 152 148 119 114 122 135 139 159 173 178 195 206 210 223 273 348 290 284 282 242 242
19 4 52 54 45 90 172 121 197 168 142 168 142 152 121 136 146 136 130 138 144 144 131 108 103 107 123 151 149 139 122 91 124 80 45 39 346 272 258 272 284 290 296 277
22 31 21 12 39 63 258 243 188 188 187 164 157 145 119 115 115 118 114 113 120 131 143 144 135 142 136 153 134 154 188 145 140 161 243 238 245 269 293 298 294 292 296 298
83 56 39 72 94 150 203 131 176 170 119 134 146 129 127 122 123 126 136 155 166 157 135 137 131 119 132 147 160 170 161 145 124 169 228 288 306 297 292 288 281 282 287 276
74 71 52 36 49 39 36 42 57 67 77 93 86 94 120 139 140 131 112 104 99 99 120 136 138 143 160 161 175 138 94 128 170 149 243 275 282 285 282 279 283 283 287 287
60 54 54 62 43 44 54 51 51 50 58 73 89 100 115 126 126 121 124 127 139 144 154 135 141 161 164 151 150 140 176 201 51 356 288 290 281 281 289 292 288 283 282 285
53 50 48 49 39 31 52 30 63 63 55 91 89 86 92 87 122 142 150 156 159 152 151 145 158 172 168 146 155 180 186 104 333 277 289 285 293 284 279 279 280 282 285 285
60 51 48 45 35 41 46 30 75 116 124 95 140 163 164 153 149 135 143 150 141 140 143 151 171 168 175 140 171 167 90 77 260 284 293 286 289 288 286 287 291 292 296 296
44 50 44 34 34 54 18 2 61 57 93 110 123 136 143 147 150 170 132 162 153 138 145 159 168 153 119 133 158 102 162 253 264 263 277 288 289 291 296 298 301 304 301 298
55 52 57 34 27 44 59 86 72 64 328 247 202 185 182 177 177 163 180 170 148 161 167 153 127 130 130 127 138 204 247 207 235 268 277 278 286 294 298 306 307 304 303 305
26 65 76 25 330 69 45 107 103 115 172 196 196 195 195 167 170 188 145 151 149 165 162 139 147 148 151 167 184 205 240 240 237 249 271 283 295 297 302 306 306 308 311 310
23 20 18 6 1 39 50 72 80 78 113 195 152 197 239 168 170 180 132 135 151 160 149 162 157 156 157 180 205 222 249 266 273 265 275 293 301 306 306 309 309 310 313 311
42 29 22 38 24 19 8 356 1 115 132 78 88 208 7 58 124 121 134 143 162 164 162 172 168 162 169 198 209 225 242 262 278 275 277 286 294 303 314 317 316 316 315 312
42 37 6 25 31 18 13 9 2 350 317 52 171 167 186 263 254 160 153 158 171 180 166 176 184 190 192 199 207 224 242 233 227 236 268 297 299 306 309 312 315 315 316 320